�������l�o���
Date,Time,MP-1(��Sv/h),MP-2(��Sv/h),MP-3(��Sv/h),MP-4(��Sv/h),MP-5(��Sv/h),MP-6(��Sv/h),MP-7(��Sv/h),MP-8(��Sv/h),����,����(m/s),���J
2021/02/27,00:00,0.654,0.961,0.604,1.209,0.854,0.377,0.669,0.625,�k��,3.6,��
2021/02/27,00:10,0.657,0.962,0.604,1.208,0.852,0.376,0.670,0.626,�k��,3.9,��
2021/02/27,00:20,0.656,0.963,0.604,1.209,0.853,0.376,0.669,0.626,�k��,3.6,��
2021/02/27,00:30,0.655,0.961,0.605,1.210,0.854,0.377,0.668,0.625,�k��,5.5,��
2021/02/27,00:40,0.656,0.960,0.605,1.210,0.851,0.376,0.669,0.624,�k��,5.6,��
2021/02/27,00:50,0.654,0.963,0.604,1.208,0.853,0.376,0.667,0.626,�k��,6.6,��
2021/02/27,01:00,0.655,0.961,0.603,1.209,0.854,0.376,0.671,0.625,�k��,7.2,��
2021/02/27,01:10,0.655,0.962,0.605,1.207,0.853,0.377,0.668,0.626,�k��,6.9,��
2021/02/27,01:20,0.657,0.961,0.603,1.209,0.853,0.376,0.669,0.627,�k��,6.5,��
2021/02/27,01:30,0.657,0.962,0.604,1.208,0.855,0.377,0.669,0.626,�k��,6.3,��
2021/02/27,01:40,0.655,0.962,0.604,1.209,0.853,0.377,0.668,0.626,�k��,4.4,��
2021/02/27,01:50,0.656,0.963,0.604,1.208,0.853,0.377,0.668,0.626,�k��,2.5,��
2021/02/27,02:00,0.657,0.962,0.607,1.210,0.853,0.377,0.668,0.627,�k�k��,2.8,��
2021/02/27,02:10,0.656,0.962,0.605,1.209,0.854,0.379,0.669,0.626,�k��,3.1,��
2021/02/27,02:20,0.656,0.963,0.605,1.207,0.853,0.378,0.668,0.626,�k��,4.5,��
2021/02/27,02:30,0.657,0.963,0.603,1.206,0.854,0.377,0.668,0.625,�k��,4.5,��
2021/02/27,02:40,0.656,0.963,0.606,1.207,0.853,0.378,0.670,0.626,�k��,3.1,��
2021/02/27,02:50,0.656,0.963,0.603,1.207,0.854,0.378,0.670,0.625,�k��,4.5,��
2021/02/27,03:00,0.656,0.961,0.603,1.210,0.852,0.379,0.669,0.626,�k��,4.7,��
2021/02/27,03:10,0.654,0.962,0.604,1.208,0.853,0.377,0.668,0.627,�k�k��,7.4,��
2021/02/27,03:20,0.655,0.964,0.605,1.207,0.854,0.375,0.666,0.625,�k�k��,7.4,��
2021/02/27,03:30,0.655,0.962,0.602,1.206,0.853,0.376,0.668,0.625,�k,4.1,��
2021/02/27,03:40,0.655,0.961,0.603,1.208,0.853,0.376,0.667,0.624,�k,8.4,��
2021/02/27,03:50,0.655,0.958,0.602,1.206,0.853,0.376,0.667,0.625,�k,12.1,��
2021/02/27,04:00,0.655,0.962,0.602,1.208,0.852,0.375,0.670,0.625,�k,10.0,��
2021/02/27,04:10,0.653,0.957,0.600,1.209,0.850,0.375,0.667,0.625,�k,8.7,��
2021/02/27,04:20,0.652,0.959,0.601,1.207,0.850,0.375,0.667,0.624,�k,10.9,�L
2021/02/27,04:30,0.652,0.961,0.602,1.205,0.851,0.376,0.667,0.625,�k�k��,9.0,�L
2021/02/27,04:40,0.652,0.959,0.602,1.204,0.848,0.375,0.667,0.624,�k�k��,8.7,��
2021/02/27,04:50,0.652,0.959,0.601,1.205,0.847,0.374,0.668,0.625,�k,8.8,��
2021/02/27,05:00,0.652,0.959,0.602,1.203,0.849,0.373,0.667,0.626,�k�k��,9.5,�L
2021/02/27,05:10,0.653,0.959,0.600,1.204,0.850,0.374,0.667,0.625,�k,8.3,��
2021/02/27,05:20,0.653,0.958,0.602,1.203,0.848,0.373,0.668,0.624,�k�k��,8.5,��
2021/02/27,05:30,0.650,0.955,0.600,1.205,0.848,0.373,0.667,0.626,�k,8.8,��
2021/02/27,05:40,0.651,0.958,0.600,1.206,0.847,0.375,0.666,0.625,�k,8.8,��
2021/02/27,05:50,0.652,0.955,0.601,1.203,0.848,0.374,0.667,0.625,�k�k��,9.1,��
2021/02/27,06:00,0.653,0.956,0.603,1.208,0.848,0.374,0.665,0.625,�k��,8.1,��
2021/02/27,06:10,0.653,0.957,0.600,1.204,0.847,0.374,0.666,0.624,�k�k��,6.4,��
2021/02/27,06:20,0.653,0.959,0.602,1.208,0.850,0.373,0.667,0.625,�k�k��,7.1,��
2021/02/27,06:30,0.652,0.957,0.599,1.206,0.849,0.376,0.667,0.626,�k��,7.3,��
2021/02/27,06:40,0.651,0.959,0.602,1.206,0.850,0.377,0.665,0.622,�k��,7.6,��
2021/02/27,06:50,0.652,0.959,0.601,1.205,0.849,0.374,0.666,0.626,�k�k��,7.6,��
2021/02/27,07:00,0.652,0.959,0.601,1.205,0.851,0.375,0.666,0.626,�k��,8.7,��
2021/02/27,07:10,0.652,0.961,0.600,1.205,0.852,0.376,0.666,0.625,�k�k��,7.1,��
2021/02/27,07:20,0.652,0.962,0.602,1.205,0.850,0.376,0.667,0.625,�k�k��,5.5,��
2021/02/27,07:30,0.653,0.960,0.602,1.203,0.848,0.376,0.666,0.623,�k,5.2,��
2021/02/27,07:40,0.651,0.960,0.603,1.206,0.851,0.376,0.666,0.625,�k,5.6,��
2021/02/27,07:50,0.651,0.959,0.601,1.206,0.849,0.377,0.667,0.625,�k,5.4,��
2021/02/27,08:00,0.651,0.959,0.601,1.203,0.851,0.375,0.667,0.624,�k�k��,6.3,��
2021/02/27,08:10,0.654,0.960,0.601,1.206,0.849,0.375,0.666,0.625,�k,6.1,��
2021/02/27,08:20,0.654,0.959,0.602,1.207,0.852,0.376,0.667,0.623,�k,6.7,��
2021/02/27,08:30,0.654,0.960,0.601,1.205,0.851,0.375,0.666,0.625,�k�k��,5.6,��
2021/02/27,08:40,0.653,0.960,0.602,1.207,0.851,0.375,0.666,0.624,�k�k��,6.0,��
2021/02/27,08:50,0.656,0.961,0.602,1.204,0.853,0.375,0.667,0.626,�k,6.6,��
2021/02/27,09:00,0.652,0.961,0.602,1.206,0.851,0.375,0.668,0.625,�k,7.0,��
2021/02/27,09:10,0.653,0.960,0.602,1.206,0.852,0.374,0.668,0.626,�k,6.4,��
2021/02/27,09:20,0.654,0.962,0.603,1.205,0.851,0.375,0.667,0.624,�k,6.5,��
2021/02/27,09:30,0.654,0.963,0.603,1.206,0.852,0.375,0.665,0.626,�k,8.3,��
2021/02/27,09:40,0.654,0.964,0.605,1.206,0.850,0.376,0.666,0.625,�k,8.1,��
2021/02/27,09:50,0.656,0.964,0.605,1.205,0.850,0.377,0.666,0.625,�k�k��,8.8,��
2021/02/27,10:00,0.654,0.962,0.603,1.208,0.852,0.375,0.668,0.626,�k�k��,8.8,��
2021/02/27,10:10,0.653,0.963,0.605,1.207,0.852,0.375,0.667,0.625,�k,7.0,��
2021/02/27,10:20,0.655,0.964,0.605,1.205,0.853,0.376,0.667,0.626,�k,10.2,��
2021/02/27,10:30,0.656,0.962,0.606,1.205,0.852,0.376,0.667,0.625,�k�k��,8.6,��
2021/02/27,10:40,0.656,0.961,0.604,1.206,0.853,0.376,0.666,0.628,�k�k��,9.6,��
2021/02/27,10:50,0.656,0.960,0.602,1.208,0.853,0.375,0.664,0.625,�k�k��,8.8,��
2021/02/27,11:00,0.654,0.962,0.605,1.208,0.853,0.375,0.666,0.625,�k,7.5,��
2021/02/27,11:10,0.656,0.962,0.605,1.208,0.854,0.377,0.664,0.626,�k�k��,5.3,��
2021/02/27,11:20,0.654,0.961,0.603,1.208,0.854,0.377,0.666,0.625,�k�k��,6.4,��
2021/02/27,11:30,0.655,0.964,0.604,1.207,0.855,0.377,0.663,0.627,�k,7.4,��
2021/02/27,11:40,0.655,0.964,0.603,1.207,0.854,0.377,0.664,0.627,�k�k��,8.8,��
2021/02/27,11:50,0.655,0.962,0.604,1.209,0.854,0.377,0.664,0.625,�k�k��,9.8,��
2021/02/27,12:00,0.655,0.963,0.603,1.209,0.856,0.377,0.663,0.625,�k�k��,9.5,��
2021/02/27,12:10,0.656,0.963,0.606,1.205,0.856,0.375,0.666,0.625,�k�k��,9.8,��
2021/02/27,12:20,0.657,0.966,0.604,1.205,0.857,0.375,0.664,0.626,�k,10.7,��
2021/02/27,12:30,0.655,0.963,0.605,1.210,0.856,0.376,0.666,0.626,�k�k��,11.6,��
2021/02/27,12:40,0.654,0.965,0.606,1.208,0.854,0.375,0.665,0.626,�k�k��,11.3,��
2021/02/27,12:50,0.655,0.965,0.604,1.208,0.853,0.377,0.667,0.626,�k,10.5,��
2021/02/27,13:00,0.655,0.964,0.605,1.207,0.851,0.376,0.664,0.626,�k,10.6,��
2021/02/27,13:10,0.656,0.964,0.604,1.207,0.853,0.376,0.664,0.625,�k�k��,11.4,��
2021/02/27,13:20,0.657,0.963,0.603,1.208,0.855,0.377,0.665,0.627,�k�k��,11.6,��
2021/02/27,13:30,0.655,0.966,0.604,1.210,0.856,0.376,0.665,0.625,�k�k��,10.2,��
2021/02/27,13:40,0.654,0.964,0.603,1.206,0.854,0.376,0.665,0.625,�k�k��,11.0,��
2021/02/27,13:50,0.655,0.965,0.604,1.212,0.856,0.377,0.666,0.626,�k�k��,11.7,��
2021/02/27,14:00,0.654,0.963,0.604,1.209,0.855,0.377,0.665,0.625,�k�k��,10.7,��
2021/02/27,14:10,0.656,0.963,0.604,1.209,0.855,0.378,0.666,0.625,�k�k��,10.2,��
2021/02/27,14:20,0.657,0.964,0.603,1.209,0.855,0.378,0.664,0.625,�k,9.5,��
2021/02/27,14:30,0.657,0.964,0.604,1.210,0.856,0.379,0.664,0.626,�k�k��,9.3,��
2021/02/27,14:40,0.656,0.965,0.605,1.210,0.853,0.376,0.663,0.626,�k�k��,8.9,��
2021/02/27,14:50,0.655,0.964,0.606,1.209,0.856,0.376,0.666,0.625,�k�k��,8.0,��
2021/02/27,15:00,0.655,0.963,0.603,1.209,0.856,0.378,0.664,0.626,�k�k��,9.7,��
2021/02/27,15:10,0.655,0.963,0.605,1.209,0.856,0.377,0.666,0.627,�k�k��,9.3,��
2021/02/27,15:20,0.656,0.964,0.603,1.209,0.854,0.378,0.667,0.627,�k�k��,9.0,��
2021/02/27,15:30,0.655,0.963,0.605,1.209,0.854,0.377,0.665,0.626,�k,8.9,��
2021/02/27,15:40,0.654,0.962,0.604,1.210,0.857,0.376,0.666,0.626,�k�k��,8.2,��
2021/02/27,15:50,0.656,0.961,0.604,1.211,0.857,0.377,0.665,0.627,�k,8.6,��
2021/02/27,16:00,0.658,0.964,0.604,1.211,0.854,0.377,0.667,0.626,�k�k��,9.6,��
2021/02/27,16:10,0.656,0.964,0.604,1.209,0.856,0.377,0.668,0.627,�k,7.9,��
2021/02/27,16:20,0.656,0.962,0.604,1.207,0.856,0.377,0.669,0.625,�k,6.2,��
2021/02/27,16:30,0.656,0.961,0.606,1.208,0.854,0.377,0.668,0.626,�k,7.8,��
2021/02/27,16:40,0.656,0.964,0.605,1.207,0.855,0.376,0.669,0.625,�k,7.3,��
2021/02/27,16:50,0.657,0.964,0.605,1.209,0.853,0.375,0.669,0.626,�k,6.7,��
2021/02/27,17:00,0.657,0.963,0.606,1.210,0.855,0.377,0.668,0.625,�k�k��,6.0,��
2021/02/27,17:10,0.656,0.964,0.602,1.207,0.859,0.376,0.667,0.626,�k,5.4,��
2021/02/27,17:20,0.656,0.965,0.603,1.206,0.855,0.376,0.669,0.623,�k,5.4,��
2021/02/27,17:30,0.655,0.965,0.604,1.208,0.854,0.376,0.667,0.624,�k,5.0,��
2021/02/27,17:40,0.655,0.963,0.603,1.209,0.855,0.377,0.666,0.625,�k,6.0,��
2021/02/27,17:50,0.656,0.960,0.606,1.208,0.855,0.376,0.667,0.626,�k,6.9,��
2021/02/27,18:00,0.655,0.964,0.604,1.208,0.855,0.376,0.668,0.627,�k,6.8,��
2021/02/27,18:10,0.656,0.964,0.603,1.210,0.854,0.376,0.668,0.628,�k�k��,6.5,��
2021/02/27,18:20,0.656,0.964,0.604,1.209,0.854,0.377,0.666,0.624,�k�k��,5.2,��
2021/02/27,18:30,0.653,0.964,0.603,1.209,0.854,0.375,0.668,0.624,�k�k��,5.8,��
2021/02/27,18:40,0.654,0.962,0.604,1.207,0.854,0.377,0.668,0.625,�k�k��,5.8,��
2021/02/27,18:50,0.652,0.963,0.603,1.208,0.854,0.377,0.667,0.624,�k�k��,6.2,��
2021/02/27,19:00,0.655,0.965,0.604,1.208,0.854,0.375,0.668,0.623,�k��,6.0,��
2021/02/27,19:10,0.654,0.962,0.603,1.208,0.854,0.376,0.667,0.626,�k�k��,6.4,��
2021/02/27,19:20,0.654,0.962,0.604,1.206,0.854,0.375,0.667,0.624,�k�k��,5.8,��
2021/02/27,19:30,0.654,0.963,0.603,1.208,0.853,0.376,0.666,0.625,�k��,4.9,��
2021/02/27,19:40,0.654,0.964,0.603,1.210,0.854,0.375,0.667,0.625,�k��,5.4,��
2021/02/27,19:50,0.653,0.962,0.604,1.208,0.856,0.375,0.667,0.624,�k��,6.4,��
2021/02/27,20:00,0.656,0.964,0.603,1.206,0.855,0.375,0.666,0.625,�k��,6.1,��
2021/02/27,20:10,0.655,0.964,0.604,1.209,0.854,0.376,0.664,0.624,�k�k��,5.1,��
2021/02/27,20:20,0.653,0.962,0.604,1.206,0.855,0.377,0.666,0.624,�k�k��,5.2,��
2021/02/27,20:30,0.653,0.963,0.602,1.207,0.852,0.376,0.666,0.624,�k�k��,6.0,��
2021/02/27,20:40,0.654,0.964,0.603,1.208,0.855,0.374,0.667,0.624,�k��,5.6,��
2021/02/27,20:50,0.653,0.964,0.605,1.207,0.853,0.373,0.665,0.623,�k��,5.8,��
2021/02/27,21:00,0.653,0.961,0.605,1.207,0.853,0.377,0.665,0.624,�k��,5.1,��
2021/02/27,21:10,0.654,0.961,0.603,1.207,0.854,0.375,0.666,0.623,���k��,4.5,��
2021/02/27,21:20,0.653,0.962,0.603,1.209,0.854,0.376,0.667,0.625,���k��,4.6,��
2021/02/27,21:30,0.654,0.964,0.603,1.210,0.854,0.375,0.665,0.625,���k��,5.8,��
2021/02/27,21:40,0.654,0.961,0.603,1.206,0.852,0.374,0.665,0.625,���k��,6.0,��
2021/02/27,21:50,0.652,0.962,0.604,1.207,0.853,0.375,0.665,0.623,�k��,5.7,��
2021/02/27,22:00,0.654,0.962,0.601,1.207,0.853,0.374,0.665,0.623,�k��,5.5,��
2021/02/27,22:10,0.654,0.961,0.601,1.207,0.853,0.376,0.667,0.623,���k��,5.5,��
2021/02/27,22:20,0.654,0.963,0.603,1.206,0.852,0.375,0.665,0.625,���k��,6.3,��
2021/02/27,22:30,0.653,0.961,0.604,1.208,0.851,0.376,0.666,0.624,���k��,5.6,��
2021/02/27,22:40,0.653,0.963,0.601,1.208,0.852,0.374,0.664,0.624,���k��,5.4,��
2021/02/27,22:50,0.654,0.962,0.601,1.208,0.853,0.375,0.666,0.623,��,5.3,��
2021/02/27,23:00,0.653,0.963,0.602,1.205,0.854,0.376,0.668,0.623,��,4.9,��
2021/02/27,23:10,0.653,0.961,0.602,1.208,0.853,0.375,0.664,0.624,���k��,4.5,��
2021/02/27,23:20,0.652,0.961,0.602,1.206,0.853,0.375,0.665,0.623,���k��,3.8,��
2021/02/27,23:30,0.654,0.962,0.603,1.205,0.854,0.376,0.665,0.626,���k��,4.0,��
2021/02/27,23:40,0.655,0.961,0.603,1.207,0.853,0.377,0.665,0.624,���k��,4.4,��
2021/02/27,23:50,0.654,0.962,0.602,1.207,0.854,0.376,0.664,0.623,���k��,4.1,��
